Weather History for Sisseton, SD

Change the Weather History Date:

Sunday, September 7, 2014

  Actual Average Record
Temperature  
Mean Temperature 71 °F 63 °F  
Max Temperature 81 °F 76 °F 99 °F (1978)
Min Temperature 61 °F 51 °F 35 °F (1956)
Degree Days  
Heating Degree Days 0 4  
Month to date heating degree days 5 24  
Since 1 July heating degree days 42 67  
Cooling Degree Days 6 2  
Month to date cooling degree days 17 20  
Year to date cooling degree days 417 499  
Growing Degree Days 21 (Base 50)    
Moisture  
Dew Point 54 °F    
Average Humidity 63    
Maximum Humidity 84    
Minimum Humidity 42    
Precipitation  
Precipitation 0.00 in 0.08 in 1.24 in (1992)
Month to date precipitation 0.01 0.49  
Year to date precipitation 20.97 17.23  
Sea Level Pressure  
Sea Level Pressure 29.92 in    
Wind  
Wind Speed 16 mph (SW)    
Max Wind Speed 25 mph    
Max Gust Speed 33 mph    
T = Trace of Precipitation, MM = Missing Value Source: NWS Daily Summary

Daily Weather History Graph

Daily Weather History Graph

Search for Another Location

Airport:

Trip Planner

Search our weather history database for the weather conditions in past years. The results will help you decide how hot, cold, wet, or windy it might be!

Date:

Astronomy

Sep. 07, 2014 Rise Set
Actual Time 6:56 AM CDT 7:54 PM CDT
Civil Twilight 6:26 AM CDT 8:24 PM CDT
Nautical Twilight 5:50 AM CDT 9:00 PM CDT
Astronomical Twilight 5:11 AM CDT 9:38 PM CDT
Moon 6:56 PM CDT (9/7) 5:07 AM CDT (9/7)
Length of Visible Light 13h 58m
Length of Day
12h 57m
Waxing Gibbous, 97% of the Moon is Illuminated
Sep 7
Waxing Gibbous
Sep 8
Full
Sep 15
Last Quarter
Sep 24
New
Oct 1
First Quarter

Hourly Weather History & Observations

Time (CDT) Temp. Heat Index Dew Point Humidity Pressure Visibility Wind Dir Wind Speed Gust Speed Precip Events Conditions
1:56 AM 63.0 °F - 46.9 °F 56% 30.01 in - WSW 20.7 mph 29.9 mph N/A   Unknown
2:56 AM 63.0 °F - 48.0 °F 58% 30.00 in - WSW 23.0 mph 32.2 mph N/A   Unknown
3:56 AM 62.1 °F - 48.9 °F 62% 30.00 in - WSW 18.4 mph 29.9 mph N/A   Unknown
4:56 AM 62.1 °F - 50.0 °F 65% 29.99 in - WSW 18.4 mph - N/A   Unknown
6:56 AM 61.0 °F - 51.1 °F 70% 29.99 in - WSW 15.0 mph - N/A   Unknown
7:56 AM 62.1 °F - 52.0 °F 70% 29.99 in - WSW 13.8 mph 23.0 mph N/A   Unknown
8:56 AM 64.9 °F - 53.1 °F 65% 29.99 in - WSW 15.0 mph 26.5 mph N/A   Unknown
9:56 AM 70.0 °F - 55.0 °F 59% 29.98 in - WSW 19.6 mph 24.2 mph N/A   Unknown
10:56 AM 73.0 °F - 55.9 °F 55% 29.96 in - WSW 15.0 mph 23.0 mph N/A   Unknown
12:56 PM 80.1 °F 80.2 °F 55.9 °F 43% 29.92 in - SW 17.3 mph 25.3 mph N/A   Unknown
1:56 PM 81.0 °F 80.8 °F 55.9 °F 42% 29.91 in - SW 16.1 mph 27.6 mph N/A   Unknown
2:56 PM 81.0 °F 80.8 °F 55.9 °F 42% 29.89 in - SSW 19.6 mph 26.5 mph N/A   Unknown
3:56 PM 79.0 °F - 55.0 °F 44% 29.87 in - SSW 15.0 mph - N/A   Unknown
4:56 PM 79.0 °F - 55.0 °F 44% 29.86 in - SSW 18.4 mph 26.5 mph N/A   Unknown
5:56 PM 75.9 °F - 55.0 °F 48% 29.86 in - South 13.8 mph - N/A   Unknown
6:56 PM 73.9 °F - 55.9 °F 53% 29.85 in - South 12.7 mph - N/A   Unknown
7:56 PM 71.1 °F - 55.9 °F 59% 29.83 in - South 13.8 mph - N/A   Unknown
8:56 PM 66.9 °F - 57.0 °F 70% 29.84 in - South 10.4 mph - N/A   Unknown
9:56 PM 64.9 °F - 57.9 °F 78% 29.83 in - South 12.7 mph - N/A   Unknown
11:56 PM 63.0 °F - 57.0 °F 81% 29.78 in - South 9.2 mph - N/A   Unknown